Temperature
21 21 20 20 19 19 21 22 23 23 22 23 23 22 21 20 20 20 20 20 20 20 20 19 19 19 19 19 19 19 19 19 19 19 19 19 19 19 19 19 19 19 19 19 18 18 18 18 18
21 20 20 20 19 20 21 22 23 23 23 23 23 22 21 20 20 20 20 20 20 20 20 19 19 19 19 19 19 19 19 19 19 19 19 19 19 19 19 18 18 18 18 18 18 18 18 18 18
21 20 20 19 20 21 22 23 23 23 23 23 22 22 21 20 20 20 20 20 20 20 19 19 19 19 19 19 19 19 19 19 19 18 18 18 18 18 18 18 18 18 18 18 18 18 18 18 18
21 21 21 20 21 22 22 23 23 23 23 23 22 21 20 20 20 21 20 20 20 19 19 19 19 19 19 19 19 19 19 18 18 18 18 18 18 18 18 18 18 18 18 18 18 18 18 18 18
21 21 20 20 22 23 23 24 24 23 23 22 21 20 20 20 21 20 20 20 20 19 19 19 19 19 19 19 18 18 18 18 18 18 18 18 18 18 18 18 18 18 18 18 18 18 18 18 18
22 20 20 21 22 23 24 24 24 23 22 22 21 20 19 20 20 20 20 20 20 19 19 19 19 19 19 18 18 18 18 18 18 18 18 18 18 18 18 18 18 18 18 18 18 18 17 18 18
22 20 21 22 22 23 24 24 24 23 22 22 21 19 20 20 20 20 20 20 19 19 19 19 19 19 18 18 18 18 18 18 18 18 18 18 18 18 18 18 18 18 18 18 18 18 17 17 18
22 20 22 21 22 23 24 24 24 23 23 22 22 20 20 20 20 20 19 19 19 19 19 19 19 18 18 18 18 18 18 18 18 18 18 18 18 18 18 18 18 18 18 18 18 18 18 17 17
23 20 21 22 23 24 24 24 24 24 23 22 22 21 21 20 20 19 19 19 19 19 19 18 18 18 18 18 18 18 18 18 18 18 18 18 18 18 18 18 18 18 18 18 18 17 18 17 17
22 21 23 23 24 24 24 24 24 23 22 21 21 21 21 20 20 19 19 19 19 19 18 18 18 18 18 18 18 18 18 18 18 18 18 18 18 18 18 18 18 18 18 18 17 17 17 17 17
22 22 23 24 25 25 24 24 24 23 21 21 21 21 20 20 19 19 19 19 19 19 19 18 18 18 18 18 18 18 18 18 18 18 18 18 18 18 18 18 18 18 18 18 17 17 17 17 17
23 23 25 25 25 25 24 24 23 23 23 23 22 21 20 20 20 19 19 19 19 19 19 18 18 18 18 18 18 18 18 18 18 18 18 18 18 18 18 18 18 18 18 18 17 17 17 17 17
24 24 25 25 25 25 24 23 23 22 23 23 22 21 20 20 20 19 19 19 19 19 19 19 18 18 18 18 18 18 18 18 18 18 18 18 18 18 18 18 18 18 18 17 17 17 17 17 17
25 25 25 25 25 25 24 23 23 22 22 22 21 21 20 20 20 19 19 19 19 19 19 19 18 18 18 18 18 18 18 18 18 18 18 18 18 17 17 18 18 18 18 17 17 17 17 17 17
25 24 24 24 25 25 24 23 22 22 22 21 21 20 20 20 20 20 20 19 19 19 19 19 19 18 18 18 18 18 18 18 18 18 18 18 18 17 17 18 18 18 17 17 17 17 17 17 17
24 24 23 24 24 24 24 22 22 22 21 20 20 20 20 20 20 20 19 19 19 19 19 19 19 18 18 18 18 18 18 18 18 18 18 18 18 18 18 18 18 18 17 17 17 17 17 17 17
23 23 24 24 24 24 23 22 22 22 21 20 20 20 20 20 20 20 20 20 19 19 19 19 19 18 18 18 18 18 18 18 18 18 18 18 18 18 18 18 18 17 17 17 17 17 17 17 17
23 24 24 24 24 24 23 22 22 21 21 20 20 20 20 20 20 20 20 20 20 19 19 19 19 18 18 18 18 18 18 18 18 18 18 18 18 18 18 18 17 17 17 17 17 17 17 17 17
24 24 23 24 24 23 22 22 22 21 21 20 20 20 20 20 21 20 20 20 20 19 19 19 19 18 18 18 18 18 18 18 18 18 18 18 18 18 18 18 17 17 17 17 17 17 17 17 17
24 24 23 23 24 23 22 22 22 21 21 21 20 20 20 20 20 20 20 20 19 19 19 19 19 18 18 18 18 18 18 18 18 18 18 18 18 18 18 18 17 17 17 17 17 17 17 17 17
24 23 23 23 23 22 23 22 21 21 21 21 21 21 21 21 20 20 20 20 20 19 19 19 19 19 18 18 18 18 18 18 18 18 18 18 18 18 18 18 17 17 17 17 17 17 17 17 17
24 24 24 24 22 21 22 21 21 20 20 20 20 20 20 20 20 20 20 20 20 20 19 19 19 19 18 18 18 18 18 18 18 18 18 18 18 18 18 17 17 17 17 17 17 17 17 17 17
24 24 23 23 21 21 21 21 20 20 20 20 20 20 20 21 21 20 20 20 20 20 20 19 19 19 18 18 18 18 18 18 18 18 18 18 18 18 18 17 17 17 17 17 17 17 17 17 17
24 23 21 19 19 21 21 20 20 19 20 20 20 20 21 21 21 21 21 20 20 20 20 19 19 19 18 18 18 18 18 18 18 18 18 18 18 18 18 18 17 17 17 17 17 17 17 17 17
23 21 21 21 19 20 20 20 20 21 20 20 20 20 20 21 21 21 20 20 20 20 19 19 19 19 18 18 18 18 18 18 18 18 18 17 18 18 18 17 17 17 17 17 17 17 17 17 17
23 21 21 21 20 20 20 20 20 21 21 21 21 20 20 20 20 20 20 20 20 20 20 19 19 19 18 18 18 18 18 18 18 18 17 17 17 17 17 17 17 17 17 17 17 17 17 17 17
22 20 20 19 19 19 19 20 20 21 20 20 20 20 20 20 20 20 20 20 20 20 20 19 19 19 19 18 18 18 18 18 18 18 17 17 17 17 17 17 17 17 17 17 17 17 17 17 17
22 19 18 18 20 20 20 20 20 20 20 19 19 19 19 20 20 20 20 20 20 20 20 19 19 19 19 18 18 18 18 18 18 18 17 17 17 17 17 17 17 17 17 17 17 17 16 16 16
22 20 17 16 18 19 20 20 21 20 20 19 19 19 19 19 20 20 20 20 20 20 19 19 19 18 18 18 18 18 18 18 17 17 17 17 17 17 17 17 17 17 17 17 17 17 16 16 16
22 20 18 20 19 17 18 19 21 20 19 19 19 19 20 20 20 19 19 19 19 19 19 19 19 18 18 18 18 18 18 17 17 17 17 17 16 16 16 16 16 16 16 16 16 16 16 16 16
Wind_Speed
7 6 2 1 3 4 2 3 0 2 2 2 4 5 5 4 2 1 1 2 4 4 6 9 11 11 10 11 12 12 12 13 13 13 13 14 14 15 15 15 15 16 15 15 15 15 14 14 13
6 4 1 2 4 3 3 2 1 1 3 3 5 5 5 4 3 3 1 2 5 6 7 9 11 11 11 11 11 12 12 12 13 13 12 12 13 13 13 13 14 14 14 14 13 14 13 13 12
6 3 1 3 3 2 2 2 1 3 3 2 3 4 3 2 2 2 1 4 5 5 6 9 10 10 10 10 11 11 12 12 12 12 12 12 11 11 12 12 12 13 13 13 13 13 12 12 11
3 1 3 4 2 2 3 2 2 3 3 4 4 4 4 3 2 3 5 6 7 5 6 9 10 9 9 9 10 10 11 11 11 11 11 11 10 10 11 11 12 12 12 12 11 11 11 11 10
1 3 5 4 3 2 1 1 3 2 2 4 4 4 3 4 5 7 7 7 6 4 5 8 9 8 8 8 9 9 10 10 10 10 10 10 9 9 9 9 11 11 11 11 10 10 10 10 9
3 4 4 2 3 3 1 1 3 4 3 3 4 4 2 2 5 6 7 6 5 5 5 6 7 8 8 8 8 8 9 9 9 9 8 8 8 8 8 8 9 11 11 11 10 10 9 9 8
3 3 1 1 2 2 1 1 3 3 3 2 4 4 1 2 4 5 5 5 5 4 3 3 4 6 6 7 7 7 7 7 7 7 7 7 7 7 7 8 8 9 10 10 10 9 9 8 7
4 3 1 1 1 2 0 1 2 3 3 4 4 5 3 4 6 6 6 5 4 2 2 2 3 3 4 5 6 6 6 6 6 6 6 6 5 5 6 6 7 8 9 9 8 8 8 7 7
3 3 1 3 3 3 1 2 2 3 5 3 3 3 5 10 9 7 5 3 2 1 0 1 1 2 2 3 5 4 5 5 4 4 4 3 2 3 4 6 7 7 7 7 7 7 7 7 6
3 2 4 4 4 3 1 2 3 4 4 3 5 7 10 10 9 8 5 4 2 1 0 1 1 1 2 2 3 3 3 3 2 2 2 2 2 2 2 5 6 6 6 6 6 6 5 4 3
4 4 3 2 2 2 2 2 2 6 2 3 7 11 11 10 8 7 5 4 3 2 2 1 1 1 2 1 2 2 2 2 1 1 2 2 1 1 0 1 2 2 3 2 3 2 2 2 2
3 4 3 1 1 2 3 2 3 2 2 6 11 13 11 9 8 7 6 4 2 2 1 1 1 1 1 1 2 2 2 1 1 1 1 1 0 1 1 1 0 1 1 1 1 1 2 2 3
1 2 1 1 2 3 5 4 4 3 6 11 12 11 10 9 7 6 5 3 2 2 1 1 1 1 1 1 1 2 2 2 2 2 2 2 1 0 1 1 1 1 1 2 1 1 2 2 2
1 1 2 2 2 2 6 3 4 3 8 11 11 9 8 8 7 5 5 4 3 2 2 1 1 1 1 1 1 1 2 2 1 2 2 3 3 2 1 1 1 1 2 2 2 2 2 2 2
1 3 4 3 2 2 6 4 1 4 9 9 8 8 7 6 6 6 6 5 5 4 3 2 2 1 1 1 1 1 1 1 1 1 2 3 3 3 1 1 1 1 2 2 2 2 1 2 2
4 4 3 3 1 2 6 0 1 5 8 8 7 7 6 5 5 5 5 4 4 3 3 2 2 2 1 1 1 1 1 2 1 2 2 2 3 3 2 1 1 1 2 2 2 2 2 2 2
5 2 2 4 1 2 4 2 2 5 7 7 6 6 6 5 4 4 4 5 5 5 4 3 2 2 1 1 1 1 1 1 1 1 2 2 2 3 2 1 1 1 1 2 2 2 2 2 2
2 1 1 3 2 3 2 2 3 6 6 6 6 5 5 6 6 4 4 5 4 4 3 3 2 1 1 1 1 1 1 1 0 1 2 2 2 3 3 2 1 2 2 1 2 2 2 2 1
3 2 2 4 2 1 1 1 3 6 5 5 5 5 6 6 4 3 4 4 4 3 3 3 2 2 1 1 1 1 1 0 1 1 1 1 1 2 2 1 2 2 2 2 3 3 3 2 2
3 1 1 3 3 2 1 2 2 5 7 7 7 7 7 5 3 4 4 4 4 5 4 4 3 2 2 1 1 1 1 1 0 1 1 1 0 1 2 2 2 2 2 3 3 3 2 1 2
2 4 4 3 3 5 3 4 2 2 2 3 4 5 5 6 6 6 5 5 5 5 6 5 5 4 3 2 2 2 2 2 2 2 2 2 1 0 0 1 2 2 3 3 3 3 3 2 1
4 4 5 3 3 1 2 2 5 3 2 3 4 4 5 5 5 5 6 5 6 6 5 4 4 4 3 3 3 3 2 1 1 0 0 1 1 1 0 1 2 2 2 2 3 3 3 3 2
4 2 3 3 4 2 3 1 7 2 3 5 5 5 5 5 5 6 6 6 4 4 4 4 4 4 3 3 3 3 2 1 0 0 1 1 1 1 0 1 1 1 1 2 2 2 3 3 2
5 7 7 6 5 1 2 2 6 3 5 5 4 5 5 5 4 4 3 3 3 3 4 4 4 3 3 3 3 3 3 2 1 0 0 1 1 1 1 1 1 1 2 2 2 2 3 2 2
5 6 4 5 4 4 2 2 7 5 4 4 4 4 4 4 4 3 3 3 4 4 4 4 5 3 3 3 3 3 3 3 2 2 1 0 1 1 1 0 1 1 1 1 2 2 2 2 2
3 7 7 4 4 4 2 4 6 4 2 1 2 3 3 3 3 3 3 4 4 5 5 5 5 4 3 3 2 2 2 2 1 1 1 1 1 1 1 1 1 1 1 1 1 1 1 1 2
5 3 5 7 2 1 5 6 6 1 1 1 2 3 3 3 4 3 3 3 3 4 5 5 5 4 3 2 2 2 2 2 1 1 1 1 1 1 0 1 1 1 1 1 1 1 1 1 1
5 8 6 5 4 2 5 4 5 5 3 2 2 3 3 3 3 3 3 3 3 4 4 4 4 4 3 3 2 2 1 1 1 1 1 0 1 0 1 1 1 1 1 1 1 1 0 1 1
4 4 6 5 5 5 3 7 5 7 6 5 5 4 4 4 4 3 2 2 2 3 3 3 4 4 3 3 3 2 1 1 1 1 0 0 0 0 0 1 1 1 1 1 1 1 1 1 0
4 6 7 5 3 4 4 7 5 4 4 4 3 2 2 2 3 3 2 2 3 3 3 3 3 3 3 3 3 2 2 1 1 1 1 1 1 1 1 1 1 1 1 1 1 1 1 1 0
Wind_Direction
155 144 142 116 50 46 359 325 347 36 39 36 72 89 101 94 115 155 315 110 119 126 132 138 139 136 133 131 129 127 126 127 129 132 134 139 141 143 147 148 150 149 148 147 144 141 141 141 141
148 156 176 51 68 42 332 319 45 60 137 118 70 72 73 62 68 97 63 112 121 122 123 133 136 136 134 132 130 129 130 131 134 135 136 138 140 143 146 147 149 151 152 152 149 146 145 143 143
164 186 75 60 74 150 268 307 105 89 103 90 72 53 67 63 89 117 135 123 113 111 122 134 135 136 134 133 130 129 131 133 135 136 138 141 143 146 149 150 153 155 156 155 154 150 148 147 147
156 67 54 59 37 258 221 229 144 123 62 54 89 64 53 31 112 129 122 118 116 117 127 136 135 135 135 134 132 133 134 135 137 141 141 143 145 148 153 156 158 159 158 157 156 155 153 151 150
83 69 48 31 332 304 266 193 143 115 66 57 87 87 44 8 91 111 118 120 124 121 127 135 137 137 139 139 137 137 136 135 136 141 145 148 149 151 155 161 164 161 159 159 159 159 156 156 156
56 60 58 1 326 320 321 130 110 88 89 87 93 96 53 76 107 123 123 121 120 123 127 136 138 138 139 138 139 138 138 138 138 141 146 150 151 152 159 163 162 164 164 163 163 166 166 167 166
96 79 83 268 305 322 300 81 110 110 106 116 119 106 105 117 123 122 112 104 98 106 115 122 137 139 138 140 140 140 141 143 142 147 151 152 158 158 161 165 163 168 170 168 168 173 173 174 174
129 99 40 274 229 283 264 74 98 117 110 107 115 133 175 164 133 111 93 85 89 89 97 118 121 126 139 149 151 148 148 149 150 153 157 159 164 168 166 166 169 177 177 175 177 180 181 181 181
121 69 279 227 197 236 190 95 75 76 98 86 86 124 140 131 127 113 99 87 86 90 64 114 112 119 134 152 159 157 162 159 162 163 160 158 140 142 160 165 177 180 178 180 185 190 190 189 188
113 143 241 223 195 193 178 129 134 88 83 77 78 89 118 130 138 136 137 142 142 144 158 115 111 120 129 151 141 137 151 151 154 150 149 133 110 119 143 171 178 182 179 182 186 193 195 190 184
167 208 250 260 191 154 136 91 97 120 130 172 148 140 138 141 145 147 154 163 172 165 157 128 124 122 121 131 137 135 131 130 143 141 135 128 109 92 72 182 192 185 181 171 183 182 171 163 175
193 258 239 249 104 115 136 110 78 109 178 146 145 144 145 146 154 163 169 173 158 128 144 145 125 108 118 141 154 149 141 151 162 196 169 132 80 4 334 317 269 202 187 177 192 186 179 174 183
206 301 351 93 91 112 93 81 92 65 96 118 126 134 147 156 161 165 166 165 158 163 176 134 103 109 113 127 181 158 171 177 189 207 209 183 178 221 267 275 264 243 186 181 187 190 167 171 187
270 18 23 51 80 87 102 77 86 108 122 126 133 142 153 159 162 163 168 173 181 194 207 170 136 128 118 122 148 168 183 180 179 211 218 203 202 217 226 231 235 235 200 190 186 185 168 174 184
26 45 24 31 66 111 99 42 78 143 129 130 141 149 154 163 170 179 184 183 190 198 199 186 169 118 117 146 185 178 189 174 183 220 217 209 204 209 202 167 184 215 187 162 153 154 156 164 167
35 45 15 320 50 110 103 206 233 142 139 145 154 161 166 173 183 190 188 186 187 187 188 201 185 141 153 164 184 201 190 182 204 219 221 214 206 203 186 171 214 211 159 141 139 149 152 157 166
30 43 328 320 352 112 106 211 208 162 156 168 172 174 177 178 192 199 195 194 189 186 184 191 200 166 179 172 170 152 138 170 228 231 235 230 217 206 190 185 215 174 137 137 149 135 140 147 153
244 214 304 297 299 90 108 211 182 178 175 184 184 186 186 191 205 201 198 196 187 182 182 188 201 197 159 109 99 97 79 48 274 252 254 246 237 216 192 188 186 156 136 128 127 133 124 137 147
169 166 246 278 295 92 160 225 204 186 190 191 193 197 199 210 207 185 192 187 173 175 181 190 192 192 129 97 122 147 161 49 19 322 302 274 244 219 200 187 167 158 156 160 147 135 127 124 118
159 169 267 318 15 84 72 325 257 196 207 202 198 203 205 206 198 194 193 187 188 195 198 197 198 188 175 160 151 141 129 108 102 4 5 337 288 217 202 172 170 159 154 150 149 145 132 133 129
241 195 213 208 31 39 56 350 315 285 230 207 201 202 200 200 206 206 205 204 202 205 205 206 202 194 188 162 115 92 74 47 31 21 9 350 356 353 198 178 167 161 161 172 175 163 156 167 160
261 236 189 162 106 349 47 292 288 273 277 226 215 204 207 207 205 204 207 211 212 213 206 202 197 193 191 169 153 150 154 187 249 236 325 349 351 340 215 177 160 156 164 179 193 179 171 167 186
207 77 96 105 120 62 22 145 290 330 282 257 228 206 205 201 199 204 206 206 212 204 191 180 174 186 189 179 174 165 179 199 219 56 16 355 358 350 4 158 144 151 164 175 181 169 166 174 185
134 70 55 51 71 28 273 167 280 260 248 264 233 208 199 194 187 198 197 179 195 193 180 162 158 177 185 178 180 181 185 184 164 174 323 338 356 359 22 103 134 157 162 174 180 170 164 169 169
91 89 36 4 7 261 280 196 253 261 240 227 223 206 189 180 180 182 166 172 184 179 176 162 159 170 168 160 171 181 180 179 186 201 198 273 343 331 342 53 116 140 179 179 164 155 169 171 173
145 133 153 193 228 276 323 245 258 273 263 201 170 167 149 157 168 179 184 184 185 177 170 165 167 176 170 160 164 146 142 159 183 187 178 181 231 275 328 60 78 98 122 132 126 144 174 164 188
133 137 152 131 132 312 287 288 302 301 359 79 129 138 162 179 179 186 187 184 180 177 174 171 167 167 163 162 152 126 132 151 170 179 179 205 233 249 66 80 80 79 88 96 114 121 162 153 184
123 139 100 114 146 254 294 280 257 258 258 250 197 191 198 189 186 183 186 188 188 180 172 168 170 171 162 149 151 150 144 162 153 128 118 175 289 272 105 90 91 94 95 102 109 119 169 148 230
102 97 103 112 146 158 246 271 229 217 215 216 221 213 200 188 189 188 192 182 158 137 145 154 162 158 150 153 156 152 162 170 135 133 180 242 310 279 167 132 120 122 113 114 112 114 107 123 329
146 155 146 153 201 171 185 265 282 215 203 198 206 196 182 179 181 175 165 142 128 125 134 144 151 162 172 168 160 168 163 154 183 217 231 221 248 248 194 147 137 157 167 151 143 174 166 152 135
Height
1501 1501 1501 1503 1505 1512 1513 1506 1500 1498 1498 1498 1498 1498 1500 1503 1506 1511 1506 1503 1504 1504 1503 1503 1504 1506 1507 1508 1509 1510 1510 1512 1512 1514 1516 1518 1520 1521 1523 1525 1528 1530 1532 1534 1536 1538 1540 1542 1544
1501 1502 1503 1504 1510 1522 1516 1503 1500 1498 1498 1499 1499 1500 1501 1503 1504 1504 1504 1505 1505 1506 1506 1506 1507 1508 1509 1510 1510 1511 1512 1513 1514 1515 1517 1519 1521 1522 1524 1526 1528 1530 1532 1534 1537 1539 1541 1543 1545
1502 1503 1505 1506 1514 1520 1513 1502 1500 1499 1499 1499 1501 1502 1503 1505 1505 1505 1506 1506 1507 1508 1508 1509 1509 1510 1511 1511 1512 1513 1514 1515 1516 1517 1519 1520 1522 1523 1525 1527 1528 1530 1533 1535 1537 1539 1541 1543 1545
1503 1505 1506 1511 1514 1509 1504 1500 1499 1499 1500 1501 1502 1504 1506 1507 1507 1507 1507 1508 1509 1509 1510 1511 1511 1512 1512 1513 1514 1515 1515 1516 1517 1518 1520 1521 1523 1524 1525 1527 1529 1531 1533 1535 1538 1540 1542 1544 1546
1504 1505 1510 1517 1513 1505 1500 1499 1499 1500 1501 1503 1503 1506 1508 1508 1508 1508 1509 1510 1510 1511 1512 1512 1513 1514 1514 1515 1515 1516 1517 1518 1519 1520 1521 1522 1523 1524 1525 1526 1528 1530 1533 1535 1538 1540 1542 1544 1546
1506 1507 1519 1522 1513 1504 1501 1499 1500 1502 1503 1504 1505 1507 1509 1510 1510 1510 1511 1511 1512 1512 1513 1514 1515 1515 1516 1516 1517 1518 1519 1519 1520 1521 1521 1522 1523 1524 1524 1525 1526 1529 1532 1535 1538 1540 1543 1545 1547
1507 1511 1518 1517 1514 1507 1502 1501 1501 1503 1504 1505 1506 1508 1510 1511 1511 1512 1513 1513 1514 1514 1515 1515 1516 1516 1517 1518 1518 1519 1519 1520 1521 1522 1522 1522 1522 1523 1523 1525 1526 1529 1532 1535 1538 1540 1542 1545 1547
1507 1511 1516 1516 1513 1509 1502 1502 1502 1503 1505 1507 1507 1508 1510 1511 1512 1513 1514 1514 1515 1515 1516 1516 1517 1517 1518 1519 1519 1520 1520 1521 1522 1522 1523 1522 1522 1523 1523 1524 1526 1529 1532 1534 1537 1540 1542 1545 1547
1507 1515 1519 1513 1510 1506 1502 1503 1504 1505 1506 1507 1508 1509 1510 1512 1513 1514 1515 1515 1515 1515 1516 1517 1517 1518 1519 1519 1520 1521 1521 1522 1522 1523 1523 1523 1523 1523 1523 1524 1526 1529 1531 1534 1537 1539 1542 1544 1546
1508 1516 1511 1504 1503 1502 1502 1503 1504 1506 1507 1509 1509 1510 1511 1512 1514 1515 1515 1515 1515 1515 1516 1517 1518 1519 1519 1520 1521 1521 1522 1522 1523 1523 1523 1523 1523 1523 1524 1525 1527 1529 1532 1534 1537 1539 1541 1544 1546
1506 1509 1503 1501 1501 1502 1502 1503 1505 1506 1509 1509 1509 1511 1512 1514 1515 1516 1516 1517 1516 1516 1517 1518 1519 1520 1520 1520 1521 1521 1522 1523 1523 1524 1524 1524 1525 1525 1525 1526 1528 1529 1532 1534 1536 1538 1541 1543 1545
1506 1503 1502 1501 1501 1502 1503 1504 1506 1507 1508 1508 1509 1511 1513 1515 1516 1517 1517 1518 1518 1518 1518 1519 1520 1520 1521 1521 1521 1522 1523 1523 1524 1525 1525 1525 1526 1526 1526 1527 1528 1530 1531 1533 1535 1538 1540 1542 1544
1504 1503 1502 1501 1502 1503 1504 1506 1507 1509 1509 1509 1511 1513 1515 1516 1517 1518 1519 1520 1520 1519 1520 1520 1521 1521 1522 1522 1522 1522 1523 1524 1525 1526 1526 1526 1527 1527 1527 1528 1529 1530 1532 1533 1535 1537 1539 1541 1542
1504 1503 1503 1503 1503 1504 1505 1508 1509 1511 1511 1511 1513 1514 1516 1517 1519 1520 1520 1521 1521 1521 1521 1522 1522 1522 1522 1522 1522 1523 1524 1525 1526 1526 1527 1527 1527 1528 1527 1528 1529 1530 1532 1533 1534 1536 1538 1539 1541
1504 1505 1505 1505 1504 1505 1507 1512 1511 1511 1512 1513 1515 1516 1517 1519 1520 1520 1521 1521 1522 1522 1523 1523 1523 1523 1523 1523 1523 1523 1524 1525 1526 1527 1527 1528 1528 1528 1528 1528 1529 1530 1531 1533 1534 1535 1537 1538 1540
1506 1511 1516 1508 1505 1506 1511 1521 1513 1513 1513 1514 1516 1517 1518 1519 1520 1521 1522 1523 1523 1523 1524 1524 1524 1524 1524 1524 1524 1524 1525 1526 1527 1527 1528 1528 1529 1529 1529 1529 1530 1531 1532 1533 1533 1534 1535 1537 1538
1516 1523 1521 1513 1507 1507 1512 1518 1513 1513 1514 1515 1516 1517 1518 1520 1521 1522 1523 1523 1523 1524 1524 1524 1525 1525 1525 1525 1524 1525 1525 1526 1527 1528 1529 1529 1529 1529 1530 1530 1530 1531 1532 1533 1534 1534 1535 1536 1538
1523 1522 1520 1518 1510 1509 1513 1515 1513 1513 1514 1515 1517 1518 1519 1519 1520 1521 1522 1523 1524 1524 1525 1525 1525 1525 1525 1525 1524 1525 1526 1527 1528 1528 1529 1530 1530 1530 1530 1530 1531 1532 1532 1533 1534 1534 1535 1536 1538
1513 1517 1520 1515 1508 1511 1515 1515 1513 1512 1514 1515 1516 1517 1518 1518 1520 1521 1522 1523 1523 1524 1524 1525 1525 1525 1525 1524 1524 1525 1526 1527 1528 1529 1530 1530 1530 1530 1531 1531 1531 1532 1533 1533 1534 1535 1536 1537 1538
1511 1517 1519 1515 1509 1512 1516 1516 1512 1512 1512 1513 1514 1516 1516 1517 1519 1519 1520 1522 1522 1523 1524 1524 1525 1525 1525 1525 1525 1526 1527 1528 1529 1529 1530 1530 1530 1531 1531 1531 1531 1532 1533 1533 1534 1535 1535 1536 1538
1512 1516 1516 1517 1514 1514 1517 1521 1516 1512 1512 1513 1514 1515 1515 1516 1517 1518 1519 1520 1521 1522 1523 1523 1524 1525 1525 1526 1526 1527 1528 1528 1529 1530 1530 1530 1530 1530 1531 1531 1531 1532 1532 1533 1533 1534 1535 1536 1537
1515 1506 1508 1512 1521 1529 1525 1538 1521 1515 1513 1512 1512 1513 1514 1515 1516 1517 1518 1519 1520 1521 1522 1523 1524 1524 1525 1526 1527 1527 1528 1528 1529 1530 1530 1531 1531 1531 1531 1531 1531 1531 1532 1532 1533 1534 1534 1535 1536
1507 1503 1508 1514 1522 1531 1530 1537 1529 1518 1516 1512 1510 1510 1511 1513 1514 1515 1516 1518 1519 1521 1522 1522 1522 1523 1525 1526 1527 1528 1528 1529 1529 1530 1530 1530 1530 1530 1530 1530 1530 1530 1531 1531 1532 1533 1533 1534 1535
1502 1509 1515 1523 1531 1543 1534 1538 1534 1521 1515 1509 1507 1508 1509 1511 1512 1514 1515 1517 1519 1520 1521 1521 1522 1523 1524 1525 1526 1527 1528 1528 1529 1529 1529 1530 1530 1530 1530 1530 1529 1530 1530 1530 1530 1531 1532 1533 1533
1505 1522 1541 1544 1551 1547 1534 1536 1531 1512 1507 1506 1506 1506 1507 1509 1511 1512 1514 1516 1517 1518 1519 1520 1521 1522 1524 1525 1525 1526 1527 1528 1528 1528 1529 1529 1529 1529 1529 1529 1529 1529 1529 1529 1529 1530 1530 1531 1531
1509 1518 1541 1551 1554 1547 1536 1536 1521 1507 1505 1504 1505 1506 1507 1508 1509 1511 1512 1514 1515 1516 1517 1519 1520 1522 1523 1524 1525 1526 1526 1527 1527 1528 1528 1528 1528 1528 1528 1528 1528 1528 1528 1528 1528 1529 1529 1529 1530
1511 1519 1521 1538 1544 1549 1541 1529 1515 1506 1505 1505 1505 1505 1506 1507 1508 1510 1511 1513 1514 1515 1516 1517 1519 1521 1522 1523 1524 1525 1525 1525 1526 1526 1527 1527 1527 1527 1527 1527 1527 1527 1527 1527 1527 1527 1527 1527 1527
1503 1514 1527 1538 1550 1552 1541 1534 1526 1511 1507 1505 1505 1505 1505 1506 1507 1508 1510 1511 1512 1514 1515 1516 1518 1520 1521 1522 1523 1524 1524 1525 1524 1524 1525 1525 1525 1525 1525 1525 1525 1525 1525 1525 1525 1525 1526 1526 1526
1509 1516 1525 1537 1539 1549 1549 1536 1508 1506 1504 1504 1504 1503 1504 1505 1506 1507 1509 1510 1512 1513 1514 1516 1517 1518 1520 1520 1521 1522 1522 1523 1523 1522 1523 1523 1523 1523 1523 1523 1523 1523 1523 1523 1523 1523 1523 1523 1523
1501 1509 1520 1530 1537 1542 1544 1532 1500 1500 1500 1501 1502 1502 1503 1504 1506 1507 1508 1510 1511 1512 1513 1515 1516 1517 1518 1519 1520 1520 1520 1521 1521 1520 1521 1521 1521 1521 1521 1521 1521 1521 1521 1521 1521 1521 1521 1521 1520